Flag for Canada Weather past 2 weeks in Charlottetown, Prince Edward Island, Canada

Now
68 °F

Passing clouds.


Feels Like: 68 °F
Forecast: 62 / 77 °F
Wind: 10 mph from Southwest

Location: Charlottetown

Current Time: Aug 2, 2015 at 10:08:31 AM

Latest Report: Aug 2, 2015 at 9:00 AM


Visibility: 15 mi

Pressure: 29.75 "Hg

Humidity: 78%

Dew point: 61 °F

Location of CharlottetownLocation

Historic Weather in Charlottetown — Graph

°F

Charlottetown temperature yesterday

Maximum temperature yesterday: 81 °F (at 4:00 PM)
Minimum temperature yesterday: 63 °F (at 4:00 AM)
Average temperature yesterday: 71 °F

Past Weeks' High & Low Weather Summary

 TemperatureHumidityPressure
High81 °F (Jul 31, 5:00 PM)100% (Jul 19, 8:00 AM)30.13 "Hg (Jul 19, 8:00 AM)
Low52 °F (Jul 25, 5:00 AM)41% (Jul 18, 1:00 PM)29.54 "Hg (Jul 22, 9:00 PM)
Average63 °F87%29.85 "Hg
* Reported Jul 18 9:00 AM — Aug 2 9:00 AM, Charlottetown, Weather by CustomWeather, © 2015

Note: Actual official high and low records may vary slightly from our data, if they occured in-between our weather recording intervals... More about our weather records

Advertising

Charlottetown weather history for previous 24 hours

 ConditionsComfort  
Time TempWeatherWind HumidityBarometerVisibility
9:00 AM
Sun, Aug 2
68 °FPassing clouds.10 mph78%29.75 "Hg15 mi
8:00 AM64 °FPassing clouds.9 mph88%29.73 "Hg15 mi
7:00 AM63 °FPassing clouds.8 mph88%29.71 "Hg15 mi
6:00 AM61 °FPassing clouds.7 mph94%29.70 "Hg15 mi
5:00 AM61 °FClear.8 mph94%29.69 "Hg15 mi
4:00 AM61 °FClear.7 mph94%29.68 "Hg15 mi
3:00 AM63 °FPassing clouds.9 mph88%29.67 "Hg15 mi
2:00 AM64 °FClear.8 mph83%29.69 "Hg15 mi
1:00 AM66 °FClear.6 mph78%29.68 "Hg15 mi
12:00 AM70 °FPassing clouds.7 mph69%29.67 "Hg15 mi
11:00 PM
Sat, Aug 1
68 °FPassing clouds.7 mph73%29.68 "Hg15 mi
10:00 PM70 °FPassing clouds.5 mph69%29.70 "Hg15 mi
9:00 PM73 °FScattered showers. Partly sunny.15 mph53%29.68 "Hg15 mi
8:00 PM72 °FBroken clouds.7 mph73%29.68 "Hg15 mi
7:00 PM75 °FBroken clouds.9 mph65%29.67 "Hg15 mi
6:00 PM79 °FPartly sunny.10 mph54%29.65 "Hg15 mi
5:00 PM81 °FScattered clouds.9 mph51%29.67 "Hg15 mi
4:00 PM81 °FScattered clouds.10 mph45%29.69 "Hg15 mi
3:00 PM79 °FScattered clouds.10 mph48%29.70 "Hg15 mi
2:00 PM79 °FScattered clouds.10 mph54%29.71 "Hg15 mi
1:00 PM79 °FScattered clouds.8 mph58%29.72 "Hg15 mi
12:15 PM77 °FScattered clouds.9 mph65%29.72 "Hg15 mi
11:00 AM75 °FScattered clouds.5 mph61%29.71 "Hg15 mi
10:00 AM73 °FScattered clouds.3 mph69%29.72 "Hg15 mi
Weather by CustomWeather, © 2015

See weather overviewHow to use our weather pages